Weather History for KN60 - January, 2013

Change the Weather History Date:

Tuesday, January 22, 2013

  Actual Average Record
Temperature  
Mean Temperature 4 °F -  
Max Temperature 12 °F 16 °F 39 °F (2015)
Min Temperature -4 °F 0 °F 6 °F (2015)
Degree Days  
Heating Degree Days 61    
Month to date heating degree days 1132  
Moisture  
Dew Point 1 °F    
Average Humidity 81    
Maximum Humidity 87    
Minimum Humidity 75    
Precipitation  
Precipitation 0.05 in - - ()
Month to date precipitation 0.43  
Year to date precipitation 0.43  
Sea Level Pressure  
Sea Level Pressure 30.27 in    
Wind  
Wind Speed 4 mph (WSW)    
Max Wind Speed 9 mph    
Max Gust Speed 10 mph    
Averages and records for this station are not official NWS values.
T = Trace of Precipitation, MM = Missing Value Source: NWS Daily Summary

Daily Weather History Graph

Daily Weather History Graph

Search for Another Location

Airport or City:

Trip Planner

Search our weather history database for the weather conditions in past years. The results will help you decide how hot, cold, wet, or windy it might be!

Date:

Astronomy

Jan. 22, 2013 Rise Set
Actual Time 8:23 AM CST 5:31 PM CST
Civil Twilight 7:49 AM CST 6:06 PM CST
Nautical Twilight 7:11 AM CST 6:43 PM CST
Astronomical Twilight 6:35 AM CST 7:20 PM CST
Moon 1:53 PM CST (1/22) 4:49 AM CST (1/22)
Length of Visible Light 10h 16m
Length of Day
9h 08m
Waxing Gibbous, 83% of the Moon is Illuminated
Jan 22
Waxing Gibbous
Jan 26
Full
Feb 3
Last Quarter
Feb 10
New
Feb 17
First Quarter

Hourly Weather History & Observations

Time (CST) Temp. Windchill Dew Point Humidity Pressure Visibility Wind Dir Wind Speed Gust Speed Precip Events Conditions
12:52 AM 1.0 °F - -6.0 °F 72% 30.36 in - Calm Calm - N/A   Unknown
1:52 AM -2.9 °F -13.3 °F -8.0 °F 79% 30.36 in - West 4.6 mph - N/A   Unknown
2:52 AM -0.0 °F -11.6 °F -6.0 °F 76% 30.35 in - WNW 5.8 mph - N/A   Unknown
3:52 AM -0.0 °F -9.9 °F -6.0 °F 76% 30.36 in - NNW 4.6 mph - N/A   Unknown
4:52 AM -0.0 °F - -6.0 °F 76% 30.35 in - Calm Calm - N/A   Unknown
5:52 AM -0.9 °F - -6.0 °F 79% 30.32 in - Calm Calm - N/A   Unknown
6:52 AM -0.9 °F - -6.0 °F 79% 30.32 in - Calm Calm - N/A   Unknown
7:52 AM -0.0 °F - -5.1 °F 79% 30.32 in - Calm Calm - N/A   Unknown
8:52 AM 1.9 °F -5.6 °F -2.9 °F 80% 30.29 in - South 3.5 mph - N/A   Unknown
9:52 AM 3.0 °F -9.3 °F -2.9 °F 76% 30.29 in - South 6.9 mph - N/A   Unknown
10:52 AM 5.0 °F -5.6 °F -0.0 °F 80% 30.29 in - South 5.8 mph - N/A   Unknown
11:52 AM 6.1 °F -5.6 °F 1.9 °F 83% 30.27 in - South 6.9 mph - 0.02 in   Unknown
12:52 PM 8.1 °F -3.2 °F 3.9 °F 83% 30.25 in - South 6.9 mph - 0.01 in   Unknown
1:52 PM 9.0 °F 0.6 °F 5.0 °F 84% 30.22 in - SSW 4.6 mph - 0.01 in   Unknown
2:52 PM 10.0 °F 0.4 °F 6.1 °F 84% 30.22 in - SSW 5.8 mph - N/A   Unknown
3:52 PM 10.9 °F 0.2 °F 6.1 °F 81% 30.20 in - SW 6.9 mph - 0.01 in   Unknown
4:52 PM 12.0 °F 4.1 °F 7.0 °F 80% 30.20 in - WSW 4.6 mph - N/A   Unknown
5:52 PM 12.0 °F 2.7 °F 8.1 °F 84% 30.19 in - West 5.8 mph - N/A   Unknown
6:52 PM 12.0 °F 4.1 °F 8.1 °F 84% 30.20 in - West 4.6 mph - N/A   Unknown
7:52 PM 10.9 °F 2.9 °F 8.1 °F 88% 30.20 in - NW 4.6 mph - N/A   Unknown
8:52 PM 10.9 °F 0.2 °F 7.0 °F 84% 30.20 in - NW 6.9 mph - N/A   Unknown
9:52 PM 12.0 °F -3.4 °F 7.0 °F 80% 30.22 in - NW 13.8 mph - N/A   Unknown
10:52 PM 10.0 °F -5.9 °F 5.0 °F 80% 30.23 in - NW 13.8 mph - N/A   Unknown
11:52 PM 10.0 °F -8.6 °F 5.0 °F 80% 30.26 in - NNW 19.6 mph - N/A   Unknown